Location: Lanoux
(43.1180°N, 1.4255°E)
Time: 23:46:55
(UTC+00:00)

NOAA 6 - Pass Details

Date: 13 December 2025
Orbit: 767 x 781 km, 98.6° (Epoch: 19 January)

Event Time Altitude Azimuth Distance (km) Brightness Sun altitude
Rises 17:54:21 0° 141° (SE) 3,234 7.0 -16.6°
Reaches altitude 10° 17:56:48 10° 134° (SE) 2,310 6.2 -17.0°
Maximum altitude 18:01:26 37° 68° (ENE) 1,190 4.5 -17.8°
Drops below altitude 10° 18:06:05 10° 2° (N) 2,318 6.3 -18.7°
Sets 18:08:32 0° 355° (N) 3,248 7.2 -19.1°
